Flag for France Weather past 2 weeks in Tours, France

Now
55 °F

Overcast.


Feels Like: 50 °F
Forecast: 53 / 58 °F
Wind: 23 mph from Southwest

Location: Tours Airport

Current Time: Mar 29, 2015 at 3:58:01 PM

Latest Report: Mar 29, 2015 at 3:30 PM


Visibility: N/A

Pressure: 29.92 "Hg

Humidity: 77%

Dew point: 48 °F

Location of ToursLocation

Historic Weather in Tours — Graph

°F

Tours temperature yesterday

Maximum temperature yesterday: 59 °F (at 1:30 PM)
Minimum temperature yesterday: 46 °F (at 12:00 AM)
Average temperature yesterday: 52 °F

Past Weeks' High & Low Weather Summary

 TemperatureHumidityPressure
High63 °F (Mar 17, 3:00 PM)100% (Mar 17, 7:30 AM)30.36 "Hg (Mar 17, 7:30 AM)
Low32 °F (Mar 25, 6:00 AM)39% (Mar 17, 3:00 PM)29.77 "Hg (Mar 24, 3:00 PM)
Average46 °F79%30.09 "Hg
* Reported Mar 14 1:00 PM — Mar 29 2:30 PM, Tours, Weather by CustomWeather, © 2015

Note: Actual official high and low records may vary slightly from our data, if they occured in-between our weather recording intervals... More about our weather records

Advertising

Tours weather history for previous 24 hours

 ConditionsComfort  
Time TempWeatherWind HumidityBarometerVisibility
2:30 PM
Sun, Mar 29
54 °FOvercast.21 mph88%29.95 "HgN/A
2:00 PM54 °FOvercast.23 mph88%29.95 "HgN/A
1:30 PM54 °FOvercast.20 mph88%29.98 "HgN/A
1:00 PM54 °FOvercast.21 mph88%29.98 "HgN/A
12:30 PM52 °FLow clouds.17 mph94%30.01 "HgN/A
12:00 PM52 °FDrizzle. Low clouds.20 mph94%30.01 "HgN/A
11:30 AM52 °FDrizzle. Low clouds.17 mph94%30.01 "Hg4 mi
11:00 AM52 °FLow clouds.18 mph88%30.01 "HgN/A
10:30 AM50 °FLow clouds.14 mph94%30.01 "HgN/A
10:00 AM50 °FLow clouds.14 mph94%30.01 "HgN/A
9:30 AM50 °FLight rain. Mostly cloudy.13 mph94%30.01 "Hg6 mi
9:00 AM50 °FLight rain. Mostly cloudy.15 mph94%30.04 "Hg4 mi
8:30 AM50 °FDrizzle. Mostly cloudy.13 mph94%30.04 "HgN/A
8:00 AM50 °FLight rain. Mostly cloudy.13 mph94%30.04 "HgN/A
7:30 AM50 °FLight rain. Passing clouds.14 mph88%30.04 "HgN/A
7:00 AM50 °FLight rain. Passing clouds.13 mph88%30.04 "HgN/A
6:30 AM50 °FPassing clouds.15 mph88%30.04 "HgN/A
6:00 AM50 °FPassing clouds.15 mph88%30.07 "HgN/A
5:30 AM50 °FPassing clouds.12 mph88%30.04 "HgN/A
5:00 AM52 °FPassing clouds.15 mph82%30.07 "HgN/A
4:30 AM52 °FMostly cloudy.15 mph82%30.07 "HgN/A
4:00 AM52 °FMostly cloudy.15 mph88%30.07 "HgN/A
3:30 AM52 °FPassing clouds.15 mph88%30.07 "HgN/A
3:00 AM52 °FMostly cloudy.12 mph88%30.07 "HgN/A
1:30 AM52 °FOvercast.13 mph88%30.09 "HgN/A
1:00 AM52 °FPassing clouds.14 mph88%30.07 "HgN/A
12:30 AM52 °FPartly cloudy.13 mph88%30.09 "HgN/A
12:00 AM52 °FPartly cloudy.14 mph88%30.09 "HgN/A
11:30 PM
Sat, Mar 28
52 °FPassing clouds.14 mph88%30.09 "HgN/A
11:00 PM52 °FPassing clouds.15 mph94%30.09 "HgN/A
10:30 PM52 °FPassing clouds.16 mph94%30.09 "HgN/A
10:00 PM52 °FPassing clouds.13 mph94%30.09 "HgN/A
9:30 PM52 °FPassing clouds.13 mph94%30.09 "Hg3 mi
9:00 PM52 °FLight rain. Passing clouds.13 mph94%30.12 "HgN/A
8:30 PM54 °FLight rain. Passing clouds.17 mph82%30.12 "HgN/A
8:00 PM55 °FPassing clouds.16 mph77%30.12 "HgN/A
7:30 PM55 °FPassing clouds.14 mph77%30.12 "HgN/A
7:00 PM55 °FPartly sunny.13 mph77%30.12 "HgN/A
6:30 PM55 °FBroken clouds.14 mph77%30.12 "HgN/A
6:00 PM55 °FOvercast.17 mph77%30.12 "HgN/A
5:30 PM55 °FMore clouds than sun.20 mph77%30.12 "HgN/A
5:00 PM57 °FMostly cloudy.15 mph77%30.12 "HgN/A
4:30 PM57 °FMostly cloudy.15 mph77%30.12 "HgN/A
4:00 PM57 °FMostly cloudy.15 mph77%30.12 "HgN/A
3:30 PM57 °FMostly cloudy.14 mph77%30.12 "HgN/A
3:00 PM57 °FMostly cloudy.14 mph77%30.15 "HgN/A
Weather by CustomWeather, © 2015

See weather overviewHow to use our weather pages